Regional Weather Roundup
Issued by NWS

Home | Current Version | Previous Version | Graphics & Text | Print | Product List | Glossary On
Versions: 1 2 3 4 5 6 7 8 9 10 11 12 13 14 15 16 17 18 19 20 21 22 23 24 25 26 27 28 29 30 31 32 33 34 35 36 37 38 39 40 41 42 43 44 45 46 47 48 49 50
038
ASUS45 KCYS 291810
RWRWY

WYOMING REGIONAL WEATHER ROUNDUP
NATIONAL WEATHER SERVICE CHEYENNE WY
1200 PM MDT SAT APR 29 2017

NOTE:  "FAIR" INDICATES FEW OR NO CLOUDS BELOW 12,000 FEET
WITH NO SIGNIFICANT WEATHER AND/OR OBSTRUCTIONS TO VISIBILITY.

WYZ001-291900-
YELLOWSTONE NATIONAL PARK

CITY           SKY/WX    TMP DP  RH WIND       PRES   REMARKS
LK YELLOWSTONE   N/A     34  16  47 VRB3      30.22S
6HR MIN TEMP:  13; 6HR MAX TEMP:  34;

W YELLOWSTONE  NOT AVBL

$$
WYZ002>013-054>058-071-098>099-291900-
NORTHERN WYOMING

CITY           SKY/WX    TMP DP  RH WIND       PRES   REMARKS
JACKSON        MOSUNNY   39  16  38 W3        30.20S
CODY           PTSUNNY   40  28  62 S6        30.26S
GREYBULL       FAIR      48  27  44 S8        30.26S
6HR MIN TEMP:  32; 6HR MAX TEMP:  48;

WORLAND        PTSUNNY   45  32  60 VRB7      30.27S
6HR MIN TEMP:  29; 6HR MAX TEMP:  47;

SHERIDAN       FAIR      42  28  57 SE12      30.28S
6HR MIN TEMP:  25; 6HR MAX TEMP:  43;

BUFFALO        FAIR      37  25  61 S12       30.28R WCI  29
6HR MIN TEMP:  25; 6HR MAX TEMP:  38;

GILLETTE       FAIR      37  29  72 SW8       30.29S WCI  31
6HR MIN TEMP:  12; 6HR MAX TEMP:  42;

HULETT         CLOUDY    46  19  34 NW7       30.28R
NEWCASTLE      FAIR      43  19  39 S7        30.29R

$$
WYZ014>020-022>026-101>103-291900-
CENTRAL WYOMING

CITY           SKY/WX    TMP DP  RH WIND       PRES   REMARKS
BIG PINEY      PTSUNNY   37  19  48 S12       30.22S WCI  29
6HR MIN TEMP:  17; 6HR MAX TEMP:  38;

PINEDALE       CLOUDY    37  18  44 E3        30.22R
DUBOIS         FAIR      36  21  55 SE13      30.22R WCI  27
LANDER         FAIR      34  23  64 S5        30.28R WCI  30
6HR MIN TEMP:  27; 6HR MAX TEMP:  34;

RIVERTON       FAIR      33  28  81 S7        30.29S WCI  27
6HR MIN TEMP:  21; 6HR MAX TEMP:  33;

CASPER         FAIR      41  21  44 NE6       30.26F
6HR MIN TEMP:  22; 6HR MAX TEMP:  41;

DOUGLAS        FAIR      36  25  64 CALM      30.29S
6HR MIN TEMP:  18; 6HR MAX TEMP:  36;


$$
WYZ021-027>030-104>119-291900-
SOUTHERN WYOMING

CITY           SKY/WX    TMP DP  RH WIND       PRES   REMARKS
EVANSTON       PTSUNNY   31  22  69 E16G26    30.22R WCI  20
6HR MIN TEMP:  22; 6HR MAX TEMP:  31;

KEMMERER         N/A     34  23  64 E8        30.23S WCI  27
FORT BRIDGER   CLOUDY    33  24  68 E12       30.26S WCI  25
ROCK SPRINGS   PTSUNNY   39  21  48 NE16G25   30.23S WCI  30
6HR MIN TEMP:  27; 6HR MAX TEMP:  39; 6HR PCP: TRACE;

DIXON            N/A     40  16  37 NE8G18    30.15S WCI  34
RAWLINS        CLOUDY    32  18  56 NE13      30.21R WCI  22
6HR MIN TEMP:  25; 6HR MAX TEMP:  32; 6HR PCP: TRACE;

SARATOGA       MOCLDY    37  18  44 E9G16     30.17S WCI  31
LARAMIE        LGT SNOW  26  18  71 NE12      30.18R WCI  16
6HR MIN TEMP:  23; 6HR MAX TEMP:  26; 6HR PCP: TRACE;

CHEYENNE       CLOUDY    30  21  69 NE14G24   30.20S WCI  19
6HR MIN TEMP:  26; 6HR MAX TEMP:  30; 6HR PCP:  0.01;

TORRINGTON     PTSUNNY   41  17  38 NE10G18   30.26S
6HR MIN TEMP:  30; 6HR MAX TEMP:  42;

PINE BLUFFS    MOCLDY    34  25  69 N14       30.21F WCI  24

$$




USA.gov is the U.S. government's official web portal to all federal, state and local government web resources and services.